Regional Weather Roundup
Issued by NWS

Home | Current Version | Previous Version | Text Only | Print | Product List | Glossary On
Versions: 1 2 3 4 5 6 7 8 9 10 11 12 13 14 15 16 17 18 19 20 21 22 23 24 25 26 27 28 29 30 31 32 33 34 35 36 37 38 39 40 41 42 43 44 45 46 47 48 49 50
000
ASUS43 KTOP 220759
RWRKS

WEATHER ROUNDUP FOR KANSAS
NATIONAL WEATHER SERVICE GOODLAND KS
200 AM CST WED NOV 22 2017

NOTE:  "FAIR" INDICATES FEW OR NO CLOUDS BELOW 12,000 FEET WITH NO
SIGNIFICANT WEATHER AND/OR OBSTRUCTIONS TO VISIBILITY.

KSZ001>006-013>018-027>032-041>047-220900-
NORTHWEST KANSAS

CITY           SKY/WX    TMP DP  RH WIND       PRES   REMARKS
GOODLAND       CLOUDY    31  23  72 S7        30.30S
HAYS           CLOUDY    21  13  71 E3        30.40F
HILL CITY      CLOUDY    20  14  77 N3        30.39S
RUSSELL        CLOUDY    18  12  77 W5        30.40S
$$

KSZ061>065-074>080-084>089-220900-
SOUTHWEST KANSAS

CITY           SKY/WX    TMP DP  RH WIND       PRES   REMARKS
DODGE CITY     CLOUDY    21  12  68 N3        30.37F
GARDEN CITY    CLEAR     23  16  74 W6        30.38R
GREAT BEND     CLOUDY    17  12  80 CALM      30.41S
LIBERAL        CLOUDY    22  18  85 W5        30.39S
$$

KSZ066>073-081>083-090>101-220900-
SOUTHEAST KANSAS

CITY           SKY/WX    TMP DP  RH WIND       PRES   REMARKS
CHANUTE        CLOUDY    26  15  63 N7        30.41R
COFFEYVILLE    CLOUDY    27  18  69 NW7       30.42R
HUTCHINSON     CLOUDY    23  13  65 N3        30.40F
MEDICINE LODGE   N/A     23  13  65 N3        30.41F
NEWTON         PTCLDY    21  13  71 NE9       30.40F
PARSONS        CLOUDY    26  17  68 N6        30.41S
WICHITA INTL   CLOUDY    27  15  61 NE9       30.41F
WICHITA JABRA  CLOUDY    22  14  71 N6        30.40F
WICHITA MCCONL CLOUDY    25  13  60 NE10      30.40F WCI  15
WINFIELD       CLOUDY    25  16  68 N8        30.44R
$$

KSZ007>012-019>026-033>040-048>060-102>105-220900-
NORTHEAST KANSAS

CITY           SKY/WX    TMP DP  RH WIND       PRES   REMARKS
CONCORDIA      CLOUDY    20  12  71 N3        30.42S
EMPORIA        CLOUDY    20  13  74 NW8       30.41S
LAWRENCE       CLOUDY    20  14  77 W7        30.44R
MANHATTAN      CLOUDY    18  11  74 CALM      30.45S
OLATHE IND     CLOUDY    22  15  75 NW10      30.42R WCI  11
OLATHE EXE     CLOUDY    24  15  68 N9        30.40R
SALINA         CLOUDY    22  12  65 W6        30.44F
TOPEKA BILLARD CLOUDY    22  15  75 W5        30.44R
TOPEKA FORBES  CLOUDY    22  14  71 N9        30.42R
$$




USA.gov is the U.S. government's official web portal to all federal, state and local government web resources and services.